When you browse on this site, cookies collect data to enhance your experience and personalize the content and advertising you see.
Visit our Privacy Policy to learn more. By continuing to use the site, you agree to this use of cookies and data.
  • In United Kingdom
  • List of Countries
  • For 7 days
  • Water Temperature
  • Weather Map
  • Weather Widgets
  • user-avatar
    Login

    Hourly Weather Bristol

    Today, 28 May, Thursday

    Time Temperature Precipitation Wind Pressure Humidity
    00:00 +14°C° 0 mm 3 mps 774 mmHg 95%
    01:00 +13°C° 0 mm 3 mps 774 mmHg 94%
    02:00 +12°C° 0 mm 3 mps 774 mmHg 94%
    03:00 +13°C° 0 mm 2 mps 774 mmHg 93%
    04:00 +13°C° 0 mm 2 mps 774 mmHg 92%
    05:00 +14°C° 0 mm 2 mps 774 mmHg 90%
    06:00 +14°C° 0 mm 2 mps 774 mmHg 89%
    07:00 +15°C° 0 mm 2 mps 774 mmHg 83%
    08:00 +17°C° 0 mm 3 mps 774 mmHg 77%
    09:00 +18°C° 0 mm 3 mps 774 mmHg 71%
    10:00 +19°C° 0 mm 3 mps 774 mmHg 68%
    11:00 +20°C° 0 mm 3 mps 773 mmHg 65%
    12:00 +21°C° 0 mm 4 mps 773 mmHg 62%
    13:00 +21°C° 0 mm 4 mps 773 mmHg 61%
    14:00 +21°C° 0 mm 4 mps 772 mmHg 60%
    15:00 +21°C° 0 mm 4 mps 772 mmHg 59%
    16:00 +21°C° 0 mm 3 mps 772 mmHg 63%
    17:00 +21°C° 0 mm 3 mps 771 mmHg 66%
    18:00 +20°C° 0 mm 3 mps 771 mmHg 70%
    19:00 +18°C° 0 mm 3 mps 771 mmHg 71%
    20:00 +16°C° 0 mm 3 mps 771 mmHg 72%
    21:00 +13°C° 0 mm 3 mps 772 mmHg 74%
    22:00 +12°C° 0 mm 3 mps 771 mmHg 73%
    23:00 +11°C° 0 mm 3 mps 771 mmHg 72%

    Tomorrow, 29 May, Friday

    Time Temperature Precipitation Wind Pressure Humidity
    00:00 +10°C° 0 mm 3 mps 771 mmHg 71%
    01:00 +9°C° 0 mm 3 mps 771 mmHg 72%
    02:00 +9°C° 0 mm 3 mps 771 mmHg 73%
    03:00 +9°C° 0 mm 3 mps 770 mmHg 74%
    04:00 +9°C° 0 mm 3 mps 770 mmHg 76%
    05:00 +10°C° 0 mm 3 mps 770 mmHg 77%
    06:00 +11°C° 0 mm 3 mps 770 mmHg 78%
    07:00 +13°C° 0 mm 3 mps 770 mmHg 75%
    08:00 +16°C° 0 mm 3 mps 770 mmHg 71%
    09:00 +18°C° 0 mm 4 mps 770 mmHg 67%
    10:00 +19°C° 0 mm 4 mps 769 mmHg 64%
    11:00 +20°C° 0 mm 4 mps 769 mmHg 60%
    12:00 +21°C° 0 mm 4 mps 769 mmHg 57%
    13:00 +21°C° 0 mm 4 mps 769 mmHg 57%
    14:00 +21°C° 0 mm 4 mps 768 mmHg 57%
    15:00 +22°C° 0 mm 4 mps 768 mmHg 58%
    16:00 +21°C° 0 mm 4 mps 767 mmHg 62%
    17:00 +21°C° 0 mm 3 mps 767 mmHg 66%
    18:00 +20°C° 0 mm 3 mps 767 mmHg 70%
    19:00 +18°C° 0 mm 3 mps 767 mmHg 73%
    20:00 +16°C° 0 mm 3 mps 767 mmHg 76%
    21:00 +13°C° 0 mm 3 mps 767 mmHg 79%
    22:00 +12°C° 0 mm 3 mps 767 mmHg 75%
    23:00 +12°C° 0 mm 2 mps 767 mmHg 72%

    Day after tomorrow, 30 May, Saturday

    Time Temperature Precipitation Wind Pressure Humidity
    00:00 +10°C° 0 mm 2 mps 768 mmHg 69%
    01:00 +9°C° 0 mm 2 mps 767 mmHg 69%
    02:00 +8°C° 0 mm 2 mps 767 mmHg 69%
    03:00 +7°C° 0 mm 2 mps 767 mmHg 69%
    04:00 +8°C° 0 mm 2 mps 767 mmHg 71%
    05:00 +9°C° 0 mm 2 mps 767 mmHg 74%
    06:00 +9°C° 0 mm 2 mps 767 mmHg 76%
    07:00 +12°C° 0 mm 3 mps 767 mmHg 74%
    08:00 +14°C° 0 mm 3 mps 767 mmHg 72%
    09:00 +17°C° 0 mm 3 mps 766 mmHg 70%
    10:00 +18°C° 0 mm 3 mps 766 mmHg 66%
    11:00 +20°C° 0 mm 3 mps 766 mmHg 63%
    12:00 +21°C° 0 mm 3 mps 766 mmHg 60%
    13:00 +21°C° 0 mm 3 mps 766 mmHg 60%
    14:00 +22°C° 0 mm 3 mps 766 mmHg 60%
    15:00 +22°C° 0 mm 3 mps 765 mmHg 59%
    16:00 +21°C° 0 mm 3 mps 765 mmHg 63%
    17:00 +21°C° 0 mm 3 mps 765 mmHg 67%
    18:00 +20°C° 0 mm 3 mps 765 mmHg 71%
    19:00 +19°C° 0 mm 3 mps 765 mmHg 74%
    20:00 +17°C° 0 mm 3 mps 765 mmHg 77%
    21:00 +14°C° 0 mm 3 mps 766 mmHg 80%
    22:00 +13°C° 0 mm 3 mps 766 mmHg 81%
    23:00 +12°C° 0 mm 3 mps 766 mmHg 81%

    31 May, Sunday

    Time Temperature Precipitation Wind Pressure Humidity
    00:00 +11°C° 0 mm 3 mps 766 mmHg 82%
    01:00 +10°C° 0 mm 3 mps 766 mmHg 85%
    02:00 +9°C° 0 mm 3 mps 766 mmHg 87%
    03:00 +9°C° 0 mm 3 mps 766 mmHg 90%
    04:00 +10°C° 0 mm 3 mps 766 mmHg 89%
    05:00 +10°C° 0 mm 3 mps 766 mmHg 87%
    06:00 +11°C° 0 mm 3 mps 766 mmHg 86%
    07:00 +13°C° 0 mm 3 mps 766 mmHg 81%
    08:00 +15°C° 0 mm 4 mps 766 mmHg 76%
    09:00 +18°C° 0 mm 4 mps 766 mmHg 71%
    10:00 +19°C° 0 mm 4 mps 766 mmHg 66%
    11:00 +20°C° 0 mm 4 mps 766 mmHg 61%
    12:00 +22°C° 0 mm 4 mps 766 mmHg 56%
    13:00 +22°C° 0 mm 4 mps 766 mmHg 57%
    14:00 +22°C° 0 mm 4 mps 766 mmHg 57%
    15:00 +22°C° 0 mm 3 mps 766 mmHg 58%
    16:00 +21°C° 0.1 mm 3 mps 766 mmHg 62%
    17:00 +21°C° 0.1 mm 3 mps 766 mmHg 66%
    18:00 +20°C° 0.1 mm 2 mps 766 mmHg 71%
    19:00 +18°C° 0 mm 2 mps 766 mmHg 75%
    20:00 +16°C° 0 mm 2 mps 766 mmHg 78%
    21:00 +13°C° 0 mm 3 mps 767 mmHg 82%
    22:00 +14°C° 0 mm 2 mps 767 mmHg 84%
    23:00 +13°C° 0 mm 2 mps 767 mmHg 86%

    1 June, Monday

    Time Temperature Precipitation Wind Pressure Humidity
    00:00 +12°C° 0 mm 2 mps 767 mmHg 87%
    01:00 +10°C° 0 mm 2 mps 766 mmHg 88%
    02:00 +10°C° 0 mm 2 mps 766 mmHg 89%
    03:00 +9°C° 0 mm 2 mps 766 mmHg 90%
    04:00 +10°C° 0 mm 2 mps 766 mmHg 89%
    05:00 +10°C° 0 mm 3 mps 766 mmHg 88%
    06:00 +11°C° 0 mm 3 mps 766 mmHg 86%
    07:00 +13°C° 0 mm 3 mps 766 mmHg 80%
    08:00 +15°C° 0 mm 4 mps 766 mmHg 74%
    09:00 +17°C° 0 mm 4 mps 766 mmHg 67%
    10:00 +18°C° 0 mm 4 mps 766 mmHg 64%
    11:00 +19°C° 0 mm 4 mps 766 mmHg 60%
    12:00 +20°C° 0 mm 4 mps 765 mmHg 56%
    13:00 +21°C° 0 mm 4 mps 765 mmHg 56%
    14:00 +21°C° 0 mm 4 mps 765 mmHg 57%
    15:00 +21°C° 0 mm 3 mps 765 mmHg 57%
    16:00 +21°C° 0 mm 3 mps 764 mmHg 61%
    17:00 +20°C° 0 mm 3 mps 764 mmHg 65%
    18:00 +20°C° 0 mm 3 mps 764 mmHg 69%
    19:00 +18°C° 0 mm 2 mps 764 mmHg 74%
    20:00 +16°C° 0 mm 2 mps 764 mmHg 79%
    21:00 +15°C° 0 mm 2 mps 764 mmHg 85%
    22:00 +14°C° 0 mm 2 mps 764 mmHg 86%
    23:00 +13°C° 0 mm 1 mps 763 mmHg 88%

    2 June, Tuesday

    Time Temperature Precipitation Wind Pressure Humidity
    00:00 +13°C° 0 mm 1 mps 763 mmHg 89%
    01:00 +12°C° 0 mm 1 mps 763 mmHg 90%
    02:00 +12°C° 0 mm 2 mps 763 mmHg 91%
    03:00 +10°C° 0 mm 2 mps 762 mmHg 92%
    04:00 +12°C° 0 mm 2 mps 762 mmHg 91%
    05:00 +12°C° 0 mm 2 mps 762 mmHg 89%
    06:00 +13°C° 0 mm 1 mps 761 mmHg 88%
    07:00 +14°C° 0 mm 2 mps 761 mmHg 82%
    08:00 +16°C° 0 mm 2 mps 761 mmHg 75%
    09:00 +18°C° 0 mm 2 mps 761 mmHg 69%
    10:00 +19°C° 0 mm 2 mps 760 mmHg 66%
    11:00 +20°C° 0 mm 2 mps 760 mmHg 63%
    12:00 +21°C° 0 mm 2 mps 759 mmHg 60%
    13:00 +21°C° 0.1 mm 3 mps 759 mmHg 61%
    14:00 +21°C° 0.1 mm 3 mps 758 mmHg 61%
    15:00 +21°C° 0.1 mm 3 mps 758 mmHg 62%
    16:00 +20°C° 0.1 mm 3 mps 757 mmHg 66%
    17:00 +20°C° 0.1 mm 2 mps 757 mmHg 71%
    18:00 +19°C° 0.1 mm 2 mps 756 mmHg 75%
    19:00 +18°C° 0 mm 2 mps 756 mmHg 77%
    20:00 +16°C° 0 mm 2 mps 756 mmHg 78%
    21:00 +15°C° 0 mm 2 mps 756 mmHg 80%
    22:00 +14°C° 0 mm 2 mps 756 mmHg 83%
    23:00 +13°C° 0 mm 3 mps 755 mmHg 85%
    Show more